Location: Bodest
(46.3000°N, 22.5667°E)
Time: 06:13:12
(UTC+00:00)

Ariane Rocket - Visible Passes

Search period start: 21 May 2022 00:00
Search period end: 31 May 2022 00:00
Orbit: 760 x 769 km, 98.6° (Epoch: 20 May)

Date Brightness Start Highest point End Pass type
(mag) Time Alt. Az. Time Alt. Az. Time Alt. Az.
21 May 4.1 19:47:17 10° SSW 19:52:01 40° W 19:56:48 10° NNW visible
22 May 3.0 19:09:55 10° SSE 19:14:59 85° WSW 19:20:06 10° NNW visible
22 May 5.6 20:53:10 10° WSW 20:54:43 11° W 20:56:15 10° WNW visible
23 May 3.5 18:33:20 10° SE 18:38:09 46° ENE 18:43:01 10° N visible
23 May 4.8 20:13:13 10° SSW 20:17:19 24° W 20:21:27 10° NW visible
24 May 3.7 19:35:13 10° S 19:40:08 51° W 19:45:07 10° NNW visible
25 May 3.0 18:58:07 10° SSE 19:03:10 76° ENE 19:08:16 10° NNW visible
25 May 5.4 20:39:54 10° WSW 20:42:43 15° W 20:45:32 10° NW visible
26 May 4.5 20:00:56 10° SSW 20:05:23 31° W 20:09:54 10° NNW visible
27 May 3.3 19:23:15 10° S 19:28:17 66° WSW 19:33:22 10° NNW visible
28 May 3.2 18:46:24 10° SSE 18:51:22 60° ENE 18:56:24 10° N visible
28 May 5.2 20:27:11 10° SW 20:30:44 19° W 20:34:19 10° NW visible
29 May 4.1 19:48:45 10° SSW 19:53:29 39° W 19:58:15 10° NNW visible
30 May 3.1 19:11:21 10° SSE 19:16:25 84° WSW 19:21:34 10° NNW visible
30 May 5.6 20:54:45 10° WSW 20:56:10 11° W 20:57:35 10° WNW visible
